Flag for Portugal Weather past 2 weeks in Leiria, Portugal

Now
70 °F

Passing clouds.


Feels Like: 70 °F
Forecast: 62 / 76 °F
Wind: 8 mph from North

Location: Monte Real Mil.

Current Time: Sep 23, 2014 at 8:21:05 PM

Latest Report: Sep 23, 2014 at 7:00 PM


Visibility: N/A

Pressure: 29.95 "Hg

Humidity: 73%

Dew point: 61 °F

Location of LeiriaLocation

Historic Weather in Leiria — Graph

°F

Leiria temperature yesterday

Maximum temperature yesterday: 66 °F (at 12:00 AM)
Minimum temperature yesterday: 61 °F (at 11:00 PM)
Average temperature yesterday: 64 °F

Past Weeks' High & Low Weather Summary

 TemperatureHumidityPressure
High79 °F (Sep 9, 1:00 PM)100% (Sep 9, 4:00 AM)30.07 "Hg (Sep 9, 4:00 AM)
Low59 °F (Sep 23, 1:00 AM)54% (Sep 9, 3:00 PM)29.56 "Hg (Sep 16, 3:00 PM)
Average69 °F83%29.88 "Hg
* Reported Sep 8 7:00 PM — Sep 23 7:00 PM, Leiria, Weather by CustomWeather, © 2014

Note: Actual official high and low records may vary slightly from our data, if they occured in-between our weather recording intervals... More about our weather records

Advertising

Leiria weather history for previous 24 hours

 ConditionsComfort  
Time TempWeatherWind HumidityBarometerVisibility
7:00 PM
Sep 23
70 °FPassing clouds.8 mph73%29.95 "HgN/A
6:00 PM70 °FScattered clouds.7 mph78%29.95 "HgN/A
5:00 PM68 °FScattered clouds.7 mph88%29.92 "HgN/A
4:00 PM73 °FScattered clouds.12 mph65%29.92 "HgN/A
3:00 PM72 °FScattered clouds.9 mph73%29.92 "HgN/A
2:00 PM73 °FScattered clouds.6 mph65%29.95 "HgN/A
1:00 PM70 °FScattered clouds.3 mph73%29.95 "HgN/A
12:00 PM70 °FScattered clouds.2 mph73%29.95 "HgN/A
9:00 AM61 °FPassing clouds.2 mph100%29.95 "Hg4 mi
7:00 AM59 °FPassing clouds.1 mph94%29.92 "Hg4 mi
6:00 AM59 °FPassing clouds.3 mph94%29.92 "Hg4 mi
5:00 AM59 °FPassing clouds.2 mph100%29.92 "Hg4 mi
4:00 AM59 °FPassing clouds.1 mph100%29.92 "Hg4 mi
3:00 AM59 °FPassing clouds.2 mph100%29.92 "Hg5 mi
2:00 AM59 °FPassing clouds.3 mph100%29.92 "HgN/A
1:00 AM59 °FPassing clouds.2 mph100%29.95 "HgN/A
12:00 AM61 °FPassing clouds.2 mph94%29.95 "HgN/A
11:00 PM
Sep 22
61 °FPassing clouds.3 mph100%29.95 "HgN/A
10:00 PM63 °FPassing clouds.1 mph94%29.95 "HgN/A
9:00 PM63 °FPassing clouds.3 mph94%29.95 "HgN/A
8:00 PM64 °FScattered clouds.3 mph88%29.92 "HgN/A
Weather by CustomWeather, © 2014

See weather overviewHow to use our weather pages